User: anonymous   Login
Location: Caltech
(34.1382°N, 118.1253°W)
Time: 22:51:34
(UTC-08:00)
Language:

SO-50 - Orbit

View from above orbital plane
View from above orbital plane
View from above satellite
View from above satellite

Ground track
Ground track

The orbit data is extracted from the following two-line orbital elements,

1 27607U 02058C   15058.91948000  .00000886  00000-0  14806-3 0  9991
2 27607 064.5556 172.3802 0075030 309.9512 049.5014 14.74479473655179
Epoch (UTC): 27 February 2015 22:04:03
Eccentricity: 0.0075030
inclination: 64.5556°
perigee height: 594 km
apogee height: 699 km
right ascension of ascending node: 172.3802°
argument of perigee: 309.9512°
revolutions per day: 14.74479473
mean anomaly at epoch: 49.5014°
orbit number at epoch: 65517

The dashed part of the orbit path shows where the satellite is in the earth's shadow,  

DLR